Probability
31 34 36 37 35 32 30 32 36 36 32 26 20 15 12 11 11 11 9 7 6 6 4 3 3 3 3 3 3 2 1 1 2 2 1 0 0 0 0 1 2 3 2
31 33 35 35 33 31 30 32 34 33 29 25 20 15 12 10 10 9 8 7 6 5 4 3 2 3 3 3 2 1 1 0 1 1 0 0 0 0 0 1 2 2 2
28 33 34 32 31 30 30 32 32 30 26 22 19 15 12 10 9 9 8 7 6 5 4 3 3 3 3 3 2 1 2 1 0 0 0 0 0 0 0 0 1 1 1
25 30 32 31 32 32 31 33 32 28 22 19 17 15 13 11 10 9 8 7 6 5 4 3 3 3 3 3 3 3 3 2 1 1 1 1 1 1 1 0 0 0 0
25 28 29 31 33 33 33 34 33 28 20 15 14 13 12 11 10 10 9 7 6 5 4 4 3 3 3 3 3 3 3 3 3 3 3 3 3 2 2 1 0 0 0
26 27 28 31 34 33 32 32 30 26 19 14 12 12 10 9 8 8 7 6 5 4 5 4 4 3 4 3 3 3 3 4 5 5 6 5 4 4 3 2 0 0 0
23 25 27 29 31 30 28 27 26 23 19 15 12 11 9 7 6 5 5 4 3 3 4 4 3 3 3 3 2 3 3 3 4 5 6 6 6 6 5 4 2 1 0
19 23 24 24 25 24 22 23 22 21 18 16 12 9 7 5 4 3 3 3 2 3 3 3 2 1 1 1 1 1 2 3 3 4 6 6 6 6 6 5 3 2 1
17 19 20 19 19 18 18 19 19 17 16 15 11 8 6 5 4 3 3 3 2 2 2 2 1 0 0 0 0 0 1 1 2 3 5 5 4 4 4 4 3 3 3
17 16 16 16 16 16 16 16 15 14 14 12 10 7 6 5 4 4 4 3 2 1 1 1 1 0 0 0 0 0 0 0 1 1 3 3 3 2 2 2 2 2 2
16 14 13 14 15 16 16 15 14 12 12 10 8 7 5 5 5 5 4 3 2 2 2 2 2 1 0 0 0 0 0 0 0 0 1 1 1 1 1 1 1 1 1
14 13 11 11 13 14 14 14 13 11 10 10 9 7 6 5 5 5 5 3 2 3 3 3 3 2 1 1 0 0 0 0 0 0 0 0 0 0 0 0 0 0 0
11 9 8 7 9 9 10 11 11 10 10 10 9 9 7 6 4 4 4 3 3 3 3 3 3 3 3 2 1 1 0 0 0 0 0 0 0 0 0 0 0 0 0
7 6 5 4 5 5 6 8 9 9 9 10 10 9 8 7 5 4 3 3 3 3 3 3 3 3 3 3 3 2 1 0 0 0 0 0 0 0 0 0 0 0 0
6 5 4 4 4 4 4 6 8 8 9 9 10 10 9 7 6 4 4 4 3 3 3 3 2 3 3 3 3 3 2 1 0 0 0 0 0 0 0 0 0 0 0
4 4 5 5 5 4 5 6 7 8 8 8 9 9 8 7 6 5 4 4 3 3 3 3 3 3 3 1 1 2 3 2 0 0 0 0 0 0 0 0 0 0 0
4 4 4 5 5 5 6 7 7 7 6 6 6 6 6 6 5 4 4 4 3 2 3 3 2 2 2 1 0 1 2 1 0 0 0 0 0 0 0 0 0 0 0
4 3 3 3 4 5 6 7 7 6 6 4 4 4 4 4 4 3 3 3 3 3 3 2 1 1 1 0 0 0 0 0 0 0 0 0 0 0 0 0 0 0 0
2 3 3 3 3 5 6 7 6 6 6 4 3 2 2 2 2 2 3 3 3 3 3 2 1 1 0 0 0 0 0 0 0 1 1 0 0 0 0 0 1 0 0
2 3 3 4 4 5 7 7 6 6 6 4 2 1 1 0 0 1 1 2 3 3 3 3 3 2 1 1 0 0 0 1 1 2 1 0 0 0 0 0 0 0 0
3 3 3 3 3 5 6 6 6 5 5 4 2 0 0 0 0 0 0 1 1 2 3 3 3 3 3 2 1 0 1 2 2 2 1 0 0 0 0 0 0 0 0
4 3 2 1 2 4 5 5 5 5 5 4 2 1 0 0 0 0 0 0 0 1 2 3 3 3 3 2 1 0 1 2 2 1 0 0 0 0 0 0 0 0 0
2 2 2 2 2 3 4 4 4 4 4 4 3 1 0 0 0 0 0 0 0 0 1 2 2 3 3 2 1 0 0 1 1 0 0 0 0 0 0 0 0 0 0
1 1 2 2 2 2 3 3 3 3 4 3 3 2 1 1 1 1 0 0 0 0 0 1 1 1 2 1 0 0 0 0 0 0 0 0 0 0 0 0 0 0 0
0 0 1 1 1 1 2 3 3 3 3 3 2 2 2 2 2 1 0 0 0 0 0 0 0 0 0 0 0 0 0 0 0 0 0 0 0 0 0 0 0 0 0
0 0 0 0 0 0 1 3 3 3 3 2 2 2 2 1 1 1 1 0 0 0 0 0 0 0 0 0 0 0 0 0 0 0 0 0 0 0 0 0 0 0 0
Wind_Speed
8 8 9 9 8 7 7 6 6 5 5 4 4 3 3 3 3 3 4 5 5 5 5 4 4 4 4 4 4 3 2 1 1 2 2 2 1 1 2 2 2 2 3
7 8 8 8 8 8 7 6 6 6 5 4 3 3 3 2 3 3 4 5 5 6 5 5 4 4 4 4 3 3 2 1 2 3 2 1 3 2 2 1 2 3 2
10 9 9 8 8 8 8 7 6 6 4 4 3 3 2 2 1 2 3 4 5 6 5 6 5 4 4 4 3 4 4 2 1 2 3 3 2 2 2 1 2 2 2
8 9 9 9 9 8 7 6 6 5 4 5 5 5 4 3 3 2 3 3 5 5 6 6 5 5 4 4 3 3 3 3 2 0 0 2 3 2 1 3 2 1 2
9 9 10 11 9 8 7 6 5 5 4 4 6 5 3 2 2 2 3 3 3 4 5 5 5 4 4 4 4 3 3 2 3 2 1 0 0 1 2 2 2 2 2
8 7 7 7 6 6 6 6 6 5 5 5 5 5 5 4 4 3 4 3 3 3 4 5 4 4 4 4 4 4 4 2 3 2 2 2 2 1 2 2 2 2 2
8 8 8 7 7 7 6 6 6 5 4 5 5 5 6 6 6 4 4 4 3 3 4 4 4 4 3 4 4 3 3 3 3 3 2 2 2 2 2 2 1 1 2
7 9 9 9 8 8 7 7 7 5 4 4 5 4 4 3 3 4 4 4 3 4 5 5 4 4 4 4 3 2 2 3 3 3 3 2 2 2 2 3 2 1 2
5 7 8 7 7 7 7 7 7 5 4 4 4 4 4 3 3 3 3 3 3 3 5 5 5 4 4 4 4 3 3 3 3 3 3 2 2 2 2 2 3 3 2
3 3 4 5 6 6 5 5 6 6 5 4 4 4 4 4 4 4 4 4 4 4 5 5 5 5 4 4 3 3 3 3 3 2 3 2 2 2 1 1 2 2 3
4 3 3 3 4 4 4 5 5 5 5 5 5 4 4 3 3 4 4 4 4 4 5 5 5 5 4 4 4 3 3 3 2 2 3 3 2 1 1 1 1 1 2
4 4 3 3 3 3 4 5 5 4 4 5 4 4 4 4 3 3 3 4 4 5 5 5 5 5 4 4 4 4 4 4 4 3 3 3 2 2 2 1 2 2 2
4 3 2 2 3 3 4 4 4 4 4 4 4 4 4 4 4 4 3 3 3 3 4 4 5 4 4 4 5 5 4 4 4 4 4 4 3 3 2 2 2 2 2
3 3 2 2 2 2 3 4 3 3 4 4 4 3 3 3 3 3 3 3 3 3 3 4 4 4 4 4 4 4 4 4 4 4 4 4 4 4 4 3 3 2 1
3 2 2 2 2 2 2 3 3 3 4 4 4 3 3 3 3 3 2 2 2 3 3 3 4 4 4 4 4 4 4 4 4 3 4 4 5 5 4 3 3 3 2
2 2 2 2 2 2 2 2 3 3 4 4 3 3 3 3 3 3 2 2 2 2 2 2 3 4 4 4 5 4 4 3 4 4 3 4 4 5 5 5 5 5 4
2 2 2 2 2 1 2 3 3 3 4 4 3 3 3 3 2 2 2 2 2 2 2 3 3 3 4 6 6 6 4 4 4 4 3 3 3 3 3 4 5 5 7
2 1 1 1 1 1 2 2 3 3 4 3 3 3 3 2 2 2 2 2 2 2 3 3 3 3 4 6 7 7 4 3 4 4 4 4 4 4 4 3 3 4 4
1 0 1 1 1 1 2 2 2 2 3 3 3 3 3 3 2 2 2 2 2 1 2 2 3 4 4 6 6 5 3 3 4 4 4 4 5 6 6 3 3 4 4
1 1 1 1 1 1 2 3 3 2 2 3 3 3 3 3 3 3 3 2 2 2 2 2 2 3 4 5 6 5 3 3 3 3 4 6 6 7 6 4 4 5 5
1 2 1 1 1 1 2 2 2 2 3 2 2 3 3 3 3 3 2 1 2 2 2 2 2 2 3 4 5 5 3 3 3 3 3 4 7 7 6 6 5 7 5
2 2 1 1 1 1 2 2 2 2 2 2 2 2 3 3 2 2 2 2 2 1 2 2 2 2 3 4 4 5 5 4 3 4 3 4 6 6 6 5 5 6 4
1 1 1 1 1 1 2 2 2 1 1 1 1 2 2 2 2 2 2 1 1 1 1 2 3 3 3 3 4 5 5 6 4 3 5 5 6 5 5 6 7 5 3
1 1 1 1 2 2 1 2 2 1 1 1 1 1 2 2 2 2 3 2 2 2 2 2 3 3 3 2 2 2 2 3 3 3 3 4 5 4 4 4 4 3 4
1 1 0 1 2 2 2 2 2 2 1 2 1 1 2 2 2 2 3 3 4 5 5 4 3 3 4 5 5 3 3 3 3 2 1 1 1 2 2 3 3 3 3
1 1 1 1 2 2 2 2 1 2 2 2 2 2 2 2 2 2 2 3 4 6 8 7 6 5 7 7 6 6 6 6 5 2 2 3 3 4 4 4 4 3 4
Wind_Direction
168 154 149 147 139 138 137 140 139 144 142 143 150 153 162 166 160 159 158 158 154 154 151 148 142 140 139 147 143 130 125 123 115 87 31 350 328 237 227 211 194 203 204
159 153 147 148 150 151 151 148 145 150 158 163 162 159 157 168 164 161 159 161 158 161 162 153 152 149 142 142 141 131 131 146 131 127 107 15 344 326 254 225 206 211 207
166 162 155 156 156 158 161 159 160 155 159 152 128 113 93 89 109 160 170 172 162 159 157 155 150 150 149 158 157 147 145 153 165 146 144 151 213 288 318 268 227 216 210
160 165 162 159 167 172 166 158 160 157 162 153 151 150 159 167 189 177 170 173 168 162 161 157 154 155 152 157 166 151 143 142 162 208 190 177 166 159 303 318 304 245 216
166 169 169 169 171 169 162 160 156 160 167 160 160 162 158 167 160 148 151 159 162 162 161 158 156 158 160 162 159 146 144 149 159 169 171 173 102 138 154 253 299 314 271
164 164 157 149 149 158 160 169 165 172 171 166 165 161 158 155 149 157 168 168 164 164 159 154 157 160 162 164 162 159 162 167 161 163 162 164 166 187 169 199 240 266 282
161 156 152 155 155 160 168 179 176 180 177 170 173 172 169 165 166 168 173 171 168 170 172 160 159 162 165 165 158 159 171 177 172 178 186 186 192 183 172 166 210 252 281
166 163 164 164 165 169 175 177 180 181 179 174 174 167 164 162 164 164 160 171 177 178 169 162 164 165 164 166 158 161 189 188 191 199 193 198 216 191 177 172 166 228 299
168 164 165 167 172 174 179 176 174 169 174 175 165 158 151 152 156 153 153 165 172 172 164 165 168 172 171 169 163 172 198 192 200 209 208 211 224 215 197 179 169 171 217
136 144 167 173 177 177 174 163 159 163 166 161 170 163 157 163 161 149 153 172 174 171 166 170 172 176 178 179 174 186 200 194 210 209 212 226 230 234 214 189 185 182 184
142 145 153 167 165 163 159 155 156 155 159 166 159 150 153 149 146 151 165 171 174 171 170 174 173 180 186 185 186 201 198 200 220 223 212 227 224 223 229 207 187 191 175
141 140 140 141 146 145 152 155 157 157 164 162 151 151 149 145 146 154 164 165 173 178 177 176 177 188 193 191 193 207 207 205 215 223 217 234 226 219 227 215 216 218 199
110 111 111 117 138 147 148 152 153 155 154 148 146 144 146 152 161 161 159 157 166 173 176 175 181 191 194 197 202 205 210 212 217 216 217 226 208 221 227 222 227 230 219
99 100 95 105 109 141 150 144 142 147 143 137 137 144 159 161 163 162 163 165 161 162 173 178 186 192 198 201 203 204 212 219 225 223 219 214 206 212 215 219 228 227 216
86 107 111 97 92 106 135 143 141 139 140 136 140 155 157 151 150 152 156 156 161 173 180 185 193 194 199 207 204 208 218 220 231 236 229 223 219 215 214 217 215 204 201
57 66 85 93 99 120 136 141 148 144 136 139 147 143 142 150 155 159 159 157 179 186 179 190 192 201 216 216 212 209 213 214 219 230 241 241 228 228 233 233 222 202 197
75 70 72 113 133 145 147 153 166 140 130 140 147 149 152 157 170 176 161 181 194 187 195 205 199 211 225 217 216 215 207 209 214 217 224 242 241 230 228 239 242 238 227
48 56 66 54 91 92 101 142 142 142 143 146 150 156 159 162 162 157 177 204 205 205 209 213 210 213 233 225 223 223 215 210 216 217 216 221 235 237 224 230 243 250 247
310 184 153 139 137 134 130 130 133 142 150 160 168 176 169 168 175 191 202 201 193 213 225 226 221 220 237 228 222 210 199 212 228 229 222 219 226 237 230 222 234 254 267
2 354 134 129 150 176 147 132 152 157 186 194 189 181 174 174 184 201 210 213 202 217 223 242 239 224 230 228 225 212 199 216 238 247 242 236 230 233 228 217 216 231 247
19 17 103 136 200 179 143 140 152 199 213 197 185 174 173 182 189 194 198 209 219 219 222 234 253 240 232 232 232 220 199 206 223 239 247 246 233 234 229 215 214 226 230
15 13 15 339 278 177 146 158 208 223 207 178 173 180 184 190 190 192 211 207 197 218 230 233 260 263 250 241 236 228 226 219 212 231 240 245 236 232 231 229 234 231 230
8 1 355 339 335 209 166 180 226 224 177 156 193 198 195 202 185 188 200 209 207 206 239 235 249 267 271 257 239 232 238 237 229 234 242 244 242 238 237 235 230 224 211
3 4 44 20 316 283 229 202 203 183 169 190 222 201 190 210 209 205 204 204 210 212 225 238 254 266 265 257 247 244 248 252 246 260 270 258 250 243 239 242 239 224 211
331 340 291 273 277 286 265 238 191 168 179 206 215 212 199 203 211 223 222 218 217 211 215 227 229 236 256 255 242 227 232 229 231 221 255 256 246 246 248 246 243 233 224
303 304 285 277 279 294 290 277 232 186 186 215 223 213 205 211 210 219 272 268 245 244 236 235 231 238 241 244 242 241 238 232 218 196 219 229 224 223 226 231 243 238 232